User: anonymous   Login
Location: Pabrico
(37.5827°N, 122.0063°W)
Time: 05:39:36
(UTC+00:00)
Language:

Cosmos 1461 - Orbit

View from above orbital plane
View from above orbital plane
View from above satellite
View from above satellite

Ground track
Ground track

The orbit data is extracted from the following two-line orbital elements,

1 14064U 83044A   24173.53969903  .00007870  00000-0  49128-3 0  9994
2 14064  64.9967 243.3140 0058561 111.3546 249.3841 15.08700068106598
Epoch (UTC): 21 June 2024 12:57:09
Eccentricity: 0.0058561
inclination: 64.9967°
perigee height: 499 km
apogee height: 580 km
right ascension of ascending node: 243.3140°
argument of perigee: 111.3546°
revolutions per day: 15.08700068
mean anomaly at epoch: 249.3841°
orbit number at epoch: 10659

The dashed part of the orbit path shows where the satellite is in the earth's shadow,  

DLR